Regional Weather Roundup
Issued by NWS

Home | Current Version | Previous Version | Graphics & Text | Print | Product List | Glossary On
Versions: 1 2 3 4 5 6 7 8 9 10 11 12 13 14 15 16 17 18 19 20 21 22 23 24 25 26 27 28 29 30 31 32 33 34 35 36 37 38 39 40 41 42 43 44 45 46 47 48 49 50
000
ASUS45 KBOU 282107
RWRCO

WEATHER ROUNDUP FOR COLORADO
NATIONAL WEATHER SERVICE DENVER/BOULDER CO
300 PM MDT WED JUN 28 2017

NOTE: "FAIR" INDICATES FEW OR NO CLOUDS BELOW 12000 FEET WITH NO
SIGNIFICANT WEATHER AND/OR OBSTRUCTIONS TO VISIBILITY.

COZ001>005-013-030-031-282200-
...NORTHWEST COLORADO...

CITY           SKY/WX    TMP DP  RH WIND       PRES   REMARKS
CRAIG          FAIR      84  16   8 SW15G28   29.92F
HAYDEN         FAIR      81  25  12 W17       29.96S
MEEKER         FAIR      83  21  10 W8G18     29.95F
RABBIT EARS PA CLOUDY    59  32  36 SW6       30.28S
STEAMBOAT SPGS FAIR      75  32  20 S10G23    29.99S
WALDEN         FAIR      75  18  11 W25G36    30.09S
$$

COZ006>008-011-282200-
...WEST CENTRAL VALLEYS...

CITY           SKY/WX    TMP DP  RH WIND       PRES   REMARKS
GRAND JUNCTION FAIR      97  19   6 W9        29.82F
MONTROSE       FAIR      90  17   7 SW21G30   29.92F
EAGLE          NOT AVBL
RIFLE          FAIR      92  10   5 SW23G39   29.88F
DELTA          FAIR      94  18   6 SW20G26   29.86F
NUCLA          FAIR      91  14   6 SW12G26   29.98F
$$

COZ017>023-064>068-282200-
...SOUTHWEST COLORADO...

CITY           SKY/WX    TMP DP  RH WIND       PRES   REMARKS
DURANGO        FAIR      86   9   5 W20G30    30.05F
CORTEZ         FAIR      91   6   4 SW18G26   30.00F
PAGOSA SPRINGS FAIR      81   9   6 SW21G30   30.13F
TELLURIDE      FAIR      74  16  11 SW10G21   30.25S
WOLF CREEK PAS FAIR      59  21  23 S22G35    30.48F
$$

COZ009-010-012-014-032>034-037-058>063-282200-
...CENTRAL COLORADO...

CITY           SKY/WX    TMP DP  RH WIND       PRES   REMARKS
ASPEN          FAIR      77  26  15 N13G26    30.08R
BUENA VISTA    FAIR      83  18   9 SW16G32   30.06F
COPPER MTN     CLOUDY    59  21  23 NW7G25    30.41R
BERTHOUD PASS  CLOUDY    50  36  57 W24G36    30.43S
COTTONWOOD PAS FAIR      73   7   7 SW18G30   30.23S
GUNNISON       FAIR      79  26  14 SW15G26   30.07F
KREMMLING      FAIR      81  23  12 NW16G24   30.04R
LEADVILLE      FAIR      71  11  10 W20G28    30.22R
MONARCH PASS   FAIR      61  18  18 W40G48    30.49F
SALIDA         FAIR      87  17   7 W15G29    30.09F
SUNLIGHT       FAIR      70  23  17 SW15G35   30.32F
WILKERSON PASS FAIR      64  12  13 SW13G23   30.35S
$$

COZ069>075-282200-
...SAN LUIS VALLEY/SANGRE DE CRISTO MOUNTAINS...

CITY           SKY/WX    TMP DP  RH WIND       PRES   REMARKS
ALAMOSA        FAIR      85  12   6 W22G29    30.07F
DEL NORTE      FAIR      83  22  11 SW20G32   30.07F
LA VETA PASS   FAIR      75  21  13 MISG      30.40S
SAGUACHE       FAIR      82  23  11 SW7       30.06F
$$

COZ035-036-038>040-282200-
...NORTHERN COLORADO FRONT RANGE...

CITY           SKY/WX    TMP DP  RH WIND       PRES   REMARKS
DENVER INTL AP PTSUNNY   87  35  15 SE17      29.86S
DMNS CITY PARK   N/A     84  36  18 E12       29.84F
AURORA         PTSUNNY   85  36  17 NE8       29.89S
FRONT RANGE AP PTSUNNY   86  37  17 E13G24    29.89S
ERIE MUNI ARPT FAIR      85  40  20 NW12G17   29.85S
BOULDER MUN AP FAIR      86  41  20 N12       29.87R
CENTENNIAL     PTSUNNY   84  34  16 E7        29.88F
BROOMFIELD     PTSUNNY   84  37  18 NW8       29.89S
FORT COLLINS   FAIR      82  37  20 S13G21    29.85F
LONGMONT       FAIR      89  40  17 N7        29.88R
$$

COZ041-046-047-076>085-087-088-282200-
...PIKES PEAK/PALMER DIVIDE AND SOUTHERN FOOTHILLS...

CITY           SKY/WX    TMP DP  RH WIND       PRES   REMARKS
COLO. SPRINGS  FAIR      86  36  16 S22G28    29.93F
A. F. ACADEMY  FAIR      82  36  19 SE24G37   29.92F
SCHRIEVER AFB  FAIR      84  32  15 S21G28    29.95F
CHEYENNE MTN   FAIR      79  35  20 SE23G31   29.94F
ELLICOTT       FAIR     N/A N/A N/A S15G30    29.93F
FALCON           N/A     84  30  14 S23G31    29.99F
FORT CARSON    FAIR      87  38  17 SE17G24   29.91F
LIMON          FAIR      88  36  15 SE17G28   29.89F
MONUMENT HILL  FAIR      82  32  16 S24G31    29.99F
CANON CITY     SUNNY     91  43  18 E13G20    29.87F
WALSENBURG     FAIR      93  36  13 S17G24    29.91F
TRINIDAD       FAIR      90  35  14 SE10      29.91F
$$

COZ042>045-048>051-090-091-282200-
...NORTHEAST COLORADO...

CITY           SKY/WX    TMP DP  RH WIND       PRES   REMARKS
GREELEY ARPT   FAIR      87  40  19 CALM      29.86R
AKRON          FAIR      85  37  18 S10       29.86F
BURLINGTON     FAIR      89  45  21 VRB5      29.84F
WRAY           FAIR      90  43  19 E10       29.81F
YUMA           FAIR      82  45  26 S7        29.83S
STERLING       FAIR      88  45  22 SE6       29.80S
HOLYOKE        NOT AVBL
FORT MORGAN    FAIR      87  33  14 S6        29.85F
$$

COZ086-089-092>099-282200-
...SOUTHEAST COLORADO...

CITY           SKY/WX    TMP DP  RH WIND       PRES   REMARKS
PUEBLO         FAIR      92  40  16 SE17G23   29.82F
LA JUNTA       FAIR      93  43  17 SE14G22   29.83F
LAMAR          FAIR      95  41  15 SE10      29.79F
SPRINGFIELD      N/A     91  49  23 SE12      29.85F
$$



USA.gov is the U.S. government's official web portal to all federal, state and local government web resources and services.